Location: Eaton
(41.3139°N, 82.0207°W)
Time: 12:33:08
(UTC+00:00)

Cosmos 2297 - Pass Details

Date: 17 June 2021
Orbit: 836 x 858 km, 71.0° (Epoch: 26 July)

Event Time Altitude Azimuth Distance (km) Brightness Sun altitude
Rises 06:39:34 0° 330° (NNW) 3,396 7.5 -23.3°
Reaches altitude 10° 06:42:05 10° 325° (NW) 2,460 6.6 -23.1°
Maximum altitude 06:47:27 46° 253° (WSW) 1,114 4.0 -22.8°
Enters shadow 06:47:57 45° 237° (WSW) 1,133 4.0 -22.8°
